This demonstration page uses our WeatherBlox Daily Observations layout. Learn more.

Left ArrowRight Arrow

53.62937, 11.41316

Hourly Observations for October 29, 2019

Temp ( °F °C ) Dew Point ( °F °C ) Humidity (%) Winds ( mph kmh ) Pressure ( in mb ) Visibility ( mi km ) Precip ( " mm )
6:50 am 06:50 Mostly Clear 36 2 36 2 100 100 VRB 1 2 30.18 1022 30 48 N/A
7:20 am 07:20 Mostly Sunny 36 2 36 2 100 100 W 3 6 30.21 1023 6 9 N/A
7:50 am 07:50 Mostly Sunny 36 2 36 2 100 100 VRB 2 4 30.21 1023 6 9 N/A
8:20 am 08:20 Mostly Sunny 36 2 36 2 100 100 VRB 1 2 30.24 1024 6 9 N/A
8:50 am 08:50 Mostly Sunny 37 3 36 2 93 93 WSW 2 4 30.24 1024 30 48 N/A
9:20 am 09:20 Mostly Sunny 39 4 39 4 100 100 VRB 2 4 30.27 1025 7 11 N/A
9:50 am 09:50 Mostly Sunny 45 7 43 6 93 93 N 6 9 30.27 1025 7 11 N/A
10:20 am 10:20 Mostly Sunny 46 8 41 5 82 82 N 8 13 30.27 1025 7 11 N/A
10:50 am 10:50 Mostly Sunny 48 9 41 5 76 76 NNE 7 11 30.27 1025 7 11 N/A
11:20 am 11:20 Mostly Sunny 50 10 41 5 71 71 NNE 9 15 30.30 1026 30 48 N/A
11:50 am 11:50 Mostly Sunny 48 9 39 4 71 71 NNE 12 19 30.30 1026 30 48 N/A
12:20 pm 12:20 Partly Cloudy 50 10 39 4 67 67 ENE 10 17 30.30 1026 30 48 N/A
12:50 pm 12:50 Partly Cloudy 48 9 37 3 66 66 NNE 12 19 30.30 1026 30 48 N/A
1:20 pm 13:20 Partly Cloudy 48 9 37 3 66 66 NNE 10 17 30.33 1027 30 48 N/A
1:50 pm 13:50 Mostly Sunny 48 9 36 2 62 62 NE 12 19 30.30 1026 30 48 N/A
2:20 pm 14:20 Mostly Sunny 48 9 34 1 58 58 NE 10 17 30.33 1027 30 48 N/A
2:50 pm 14:50 Mostly Sunny 48 9 34 1 58 58 NE 9 15 30.33 1027 30 48 N/A
3:20 pm 15:20 Mostly Sunny 48 9 32 0 54 54 NNE 10 17 30.33 1027 30 48 N/A
3:50 pm 15:50 Mostly Sunny 46 8 32 0 57 57 NE 9 15 30.33 1027 7 11 N/A
4:20 pm 16:20 Mostly Sunny 45 7 32 0 61 61 NE 6 9 30.33 1027 7 11 N/A
4:50 pm 16:50 Mostly Sunny 43 6 32 0 66 66 NNE 3 6 30.36 1028 7 11 N/A
5:20 pm 17:20 Mostly Clear 41 5 34 1 76 76 ENE 2 4 30.36 1028 7 11 N/A
5:50 pm 17:50 Mostly Clear 39 4 34 1 81 81 VRB 1 2 30.36 1028 7 11 N/A
6:20 pm 18:20 Mostly Clear 37 3 34 1 87 87 SW 2 4 30.39 1029 7 11 N/A
6:50 pm 18:50 Mostly Clear 37 3 34 1 87 87 VRB 1 2 30.39 1029 7 11 N/A
7:20 pm 19:20 Mostly Clear 37 3 36 2 93 93 VRB 1 2 30.39 1029 7 11 N/A
7:50 pm 19:50 Mostly Clear 36 2 34 1 93 93 SSE 1 2 30.39 1029 7 11 N/A

Powered by AerisWeather